Weather History for KEKO - August, 2014

Change the Weather History Date:

Tuesday, August 26, 2014

  Actual Average Record
Temperature  
Mean Temperature 63 °F 66 °F  
Max Temperature 80 °F 86 °F 99 °F (1924)
Min Temperature 46 °F 46 °F 20 °F (1992)
Degree Days  
Heating Degree Days 2 2  
Month to date heating degree days 18 20  
Since 1 June heating degree days 110 170  
Since 1 July heating degree days 18 39  
Cooling Degree Days 0 3  
Month to date cooling degree days 120 120  
Year to date cooling degree days 496 351  
Since 1 June cooling degree days 493 347  
Growing Degree Days 14 (Base 50)    
Moisture  
Dew Point 44 °F    
Average Humidity 55    
Maximum Humidity 89    
Minimum Humidity 21    
Precipitation  
Precipitation 0.03 in 0.01 in 0.10 in (1895)
Month to date precipitation 1.27 0.31  
Year to date precipitation 7.67 6.22  
Snow  
Snow 0.00 in 0.00 in 0.00 in (1888)
Month to date snowfall 0.0 0.0  
Since 1 June snowfall 0.0 0.0  
Since 1 July snowfall 0.0 0.0  
Snow Depth 0.00 in    
Sea Level Pressure  
Sea Level Pressure 30.05 in    
Wind  
Wind Speed 5 mph (East)    
Max Wind Speed 22 mph    
Max Gust Speed 30 mph    
Visibility 10 miles    
Events Rain , Thunderstorm    
T = Trace of Precipitation, MM = Missing Value Source: NWS Daily Summary

Daily Weather History Graph

Daily Weather History Graph

Search for Another Location

Airport or City:

Trip Planner

Search our weather history database for the weather conditions in past years. The results will help you decide how hot, cold, wet, or windy it might be!

Date:

Astronomy

Aug. 26, 2014 Rise Set
Actual Time 6:04 AM PDT 7:24 PM PDT
Civil Twilight 5:35 AM PDT 7:53 PM PDT
Nautical Twilight 5:01 AM PDT 8:27 PM PDT
Astronomical Twilight 4:25 AM PDT 9:03 PM PDT
Moon 7:09 AM PDT (8/26) 7:47 PM PDT (8/26)
Length of Visible Light 14h 17m
Length of Day
13h 20m
New Moon, 1% of the Moon is Illuminated
Aug 26
New Moon
Sep 2
First Quarter
Sep 8
Full
Sep 15
Last Quarter
Sep 23
New

Hourly Weather History & Observations

Time (PDT) Temp. Dew Point Humidity Pressure Visibility Wind Dir Wind Speed Gust Speed Precip Events Conditions
12:56 AM 54.0 °F 48.9 °F 83% 30.01 in 10.0 mi NNE 3.5 mph - N/A   Mostly Cloudy
1:56 AM 51.1 °F 48.9 °F 92% 30.00 in 10.0 mi ESE 3.5 mph - N/A   Clear
2:56 AM 53.1 °F 48.0 °F 83% 30.02 in 10.0 mi NE 3.5 mph - N/A   Mostly Cloudy
3:56 AM 51.1 °F 46.9 °F 86% 30.02 in 10.0 mi ESE 4.6 mph - N/A   Scattered Clouds
4:56 AM 51.1 °F 46.0 °F 83% 30.03 in 10.0 mi North 4.6 mph - N/A   Scattered Clouds
5:56 AM 50.0 °F 46.0 °F 86% 30.05 in 10.0 mi East 4.6 mph - N/A   Mostly Cloudy
6:56 AM 48.9 °F 45.0 °F 86% 30.08 in 10.0 mi Calm Calm - N/A   Clear
7:56 AM 55.0 °F 46.0 °F 72% 30.09 in 10.0 mi WNW 3.5 mph - N/A   Clear
8:56 AM 57.9 °F 48.0 °F 70% 30.09 in 10.0 mi Calm Calm - N/A   Clear
9:56 AM 63.0 °F 46.9 °F 56% 30.08 in 10.0 mi Calm Calm - N/A   Clear
10:56 AM 69.1 °F 43.0 °F 39% 30.06 in 10.0 mi Calm Calm - N/A   Clear
11:56 AM 72.0 °F 41.0 °F 33% 30.04 in 10.0 mi Calm Calm - N/A   Clear
12:56 PM 75.0 °F 37.9 °F 26% 30.00 in 10.0 mi East 5.8 mph - N/A   Clear
1:56 PM 78.1 °F 36.0 °F 22% 29.99 in 10.0 mi Variable 4.6 mph - N/A   Clear
2:43 PM 79.0 °F 35.1 °F 20% 30.10 in 10.0 mi East 4.6 mph - N/A Thunderstorm Clear
2:56 PM 79.0 °F 34.0 °F 20% 29.96 in 10.0 mi Variable 4.6 mph - N/A Thunderstorm Thunderstorm
3:17 PM 79.0 °F 39.9 °F 25% 30.10 in 10.0 mi ESE 10.4 mph - N/A   Partly Cloudy
3:37 PM 75.0 °F 37.9 °F 26% 30.11 in 10.0 mi ENE 9.2 mph - N/A Thunderstorm Mostly Cloudy
3:56 PM 69.1 °F 50.0 °F 51% 30.02 in 9.0 mi East 11.5 mph 17.3 mph 0.03 in Rain , Thunderstorm Light Rain
4:13 PM 69.1 °F 48.9 °F 49% 30.12 in 10.0 mi East 10.4 mph - 0.00 in   Mostly Cloudy
4:56 PM 68.0 °F 45.0 °F 43% 30.04 in 10.0 mi South 23.0 mph 29.9 mph 0.00 in   Scattered Clouds
5:56 PM 69.1 °F 41.0 °F 36% 30.03 in 10.0 mi South 10.4 mph - N/A   Clear
6:56 PM 66.9 °F 42.1 °F 40% 30.05 in 10.0 mi SSW 6.9 mph - N/A   Mostly Cloudy
7:56 PM 64.0 °F 42.1 °F 45% 30.04 in 10.0 mi Calm Calm - N/A   Partly Cloudy
8:56 PM 63.0 °F 45.0 °F 52% 30.07 in 10.0 mi ENE 4.6 mph - N/A   Partly Cloudy
9:56 PM 61.0 °F 45.0 °F 56% 30.08 in 10.0 mi NE 5.8 mph - N/A   Clear
10:56 PM 57.0 °F 45.0 °F 64% 30.09 in 10.0 mi East 6.9 mph - N/A   Clear
11:56 PM 55.0 °F 45.0 °F 69% 30.09 in 10.0 mi East 5.8 mph - N/A   Mostly Cloudy